Showing default

TECHNOSAT, 42829

Orbit data source: Space-Track

TECHNOSAT, 42829 is a payload satellite owned by TUB (DE) in SSO that was launched on Fri, 14 Jul 2017 UTC via a SOYUZ-2-1A launch vehicle from the Tyuratam Missile And Space Complex (TTMTR). Payload-class satellites include a variety of spacecraft equipped with specific instruments for various scientific and technological missions. These include communications satellites like Starlink; space stations such as the ISS; scientific satellites like the Hubble; Earth observation satellites from companies like Planet Labs, Umbra, and HawkEye 360; GPS; miniature CubeSats for education and research; and military/defense satellites.

Loading next visibility...
Identifier
42829, 2017-042E
Orbit
SSO
Country
Flag of DEDE / GER
Related business
Manufacturer
TUB
Mission
Operational Amateur Technology
Bus & Motor
TUBIX20, Unknown motor
Mass
18 kg wet, 18 kg dry
Launch date (UTC)
2017-07-14 (8 years ago)
Launch vehicle
SOYUZ-2-1A
Launch site
Tyuratam Missile And Space Complex (TTMTR)
Object type
Payload
Rocket body
Debris
Shape & HBR
Oct Cyl, 1.0 m
Radar Cross Section
0.175 m², Medium (>0.1 m² and < 1m²)

Expand to show TLE details & history
Last TLE update: 11 hours ago

TLE from 11 hours ago
0 TECHNOSAT
1 42829U 17042E   25340.60504341  .00007493  00000-0  55395-3 0  9999
2 42829  97.4026 141.0758 0018711  33.0292 327.2098 15.03333064457755
Epoch: 2025-12-06T14:31Z
TLE epoch observation values (Epoch: 2025-12-06T14:31:15.750Z)
Latitude
-0.0001°
Longitude
-152.3702°
Altitude
548.792 km
Speed
7.594 km/s
True Right ascension
09h 24m 18s
True Declination
0° 00' 00"
Sunlit
Object was in daylight at epoch
Visualization orbit readout
Latitude
Unknown
Longitude
Unknown
Altitude
Unknown
Speed
Unknown
Apparent Right ascension
Unknown
Apparent Declination
Unknown
Sunlit
N/A
Visualization observer readout
Local Sidereal Time
23:23:27
Azimuth
Unknown
Elevation
Unknown
Doppler factor
Unknown
Orbital elements
Apogee altitude
566.585 km
Perigee altitude
540.645 km
Semi-major axis
6,931.752 km
Eccentricity
0.00187
Inclination
97.4026°
RAAN
141.0758°
Arg. of periapsis
33.0292°
True anomaly
327.09345°
Mean anomaly
327.2098°
Eccentric anomaly
327.15165°
Mean motion
3.76079 °/min
Orbital period
95.72 mins
BSTAR
0.00055395
Loading maneuver chart data...
Computing Atmospheric mass density...
Loading historical data...
Loading historical data...
Loading historical data...
Loading historical data...
Loading historical data...
Loading historical data...
Loading historical data...

Documentation

Showing up to 5 results
|